Regional Weather Roundup
Issued by NWS

Home | Current Version | Previous Version | Graphics & Text | Print | Product List | Glossary On
Versions: 1 2 3 4 5 6 7 8 9 10 11 12 13 14 15 16 17 18 19 20 21 22 23 24 25 26 27 28 29 30 31 32 33 34 35 36 37 38 39 40 41 42 43 44 45 46 47 48 49 50
000
ASUS45 KSLC 201810
RWRUT

UTAH REGIONAL WEATHER ROUNDUP
NATIONAL WEATHER SERVICE SALT LAKE CITY UT
1200 PM MDT MON OCT 20 2014

UTZ001>011-023>025-201900-

NORTHERN UTAH

CITY           SKY/WX    TMP DP  RH WIND       PRES   REMARKS
BRIGHAM CITY   SUNNY     63  37  37 CALM      30.06F
HILL AFB       SUNNY     67  35  30 E7        30.07F
LOGAN          SUNNY     59  36  42 CALM      30.07F
OGDEN          SUNNY     69  35  28 CALM      30.05F
PROVO AIRPORT  MOSUNNY   66  37  34 E5        30.09F
SALT LAKE CITY MOSUNNY   71  38  29 SE13      30.03F
VERNAL         SUNNY     59  38  45 S7        30.18F
WENDOVER         N/A     59  36  41 E7        30.05F VSB<1/4
HEBER CITY     SUNNY     57  36  44 CALM      30.13F THUNDER
WEST JORDAN    SUNNY     70  45  40 SE15      30.07F

$$

UTZ012>022-026-027-201900-

SOUTHERN/CENTRAL UTAH

CITY           SKY/WX    TMP DP  RH WIND       PRES   REMARKS
BLANDING       SUNNY     64  42  44 SE3       30.28F
BRYCE CANYON   SUNNY     57  37  47 S12       30.26F
CEDAR CITY     SUNNY     69  40  34 SW10      30.11F
DELTA          SUNNY     66  35  31 CALM      30.09S
HANKSVILLE       N/A     63  34  34 CALM      30.16F
MILFORD        SUNNY     69  39  33 S9        30.08F
MOAB/CYNLANDS  SUNNY     70  38  31 MISG      30.13F
PRICE          SUNNY     64  34  32 SE10      30.20S
ST GEORGE      CLEAR     72  39  30 NW7       30.03F

$$

REGIONAL REPORTS     COLORADO/ARIZONA

CITY           SKY/WX    TMP DP  RH WIND       PRES   REMARKS
CRAIG, CO      SUNNY     66  37  34 VRB3      30.20F
GRAND JUNCTION SUNNY     66  44  45 SE5       30.16F
RIFLE          SUNNY     61  38  42 CALM      30.19F
MONTROSE       MOSUNNY   66  38  35 CALM      30.21F
CORTEZ         SUNNY     65  41  41 CALM      30.22F
PAGE, AZ       NOT AVBL
GRAND CANYON   SUNNY     64  38  38 E7        30.20F
KINGMAN        SUNNY     76  44  32 W5        30.03S
FLAGSTAFF      SUNNY     59  38  45 CALM      30.22S

$$

REGIONAL REPORTS    NEVADA/IDAHO/WYOMING

CITY           SKY/WX    TMP DP  RH WIND       PRES   REMARKS
LAS VEGAS, NV  MOSUNNY   78  38  23 S5        29.92S
ELY            SUNNY     70  33  25 S18G28    30.10F
ELKO           SUNNY     69  32  25 CALM      30.00F
POCATELLO, ID  MOSUNNY   64  38  38 N5        30.02F
BURLEY         PTSUNNY   66  38  35 E5        29.96F
EVANSTON, WY   SUNNY     62  32  32 SW10      30.19
ROCK SPRINGS   SUNNY     58  32  37 CALM      30.19F
KEMMERER       SUNNY     61  30  31 CALM      30.21F

$$


USA.gov is the U.S. government's official web portal to all federal, state and local government web resources and services.